DF5HRN-13 Weather Reports


time (UTC)temp
C
wind
direction
speed
KPH
gust
KPH
rain 1hr
cm
rain 24hr
cm
rain mn
cm
humidity
%
barometer
mb
20260502123005 20 135 0.0 14.5 0.00 0.00 0.00 35 1032.0
20260502121505 20 135 0.0 14.5 0.00 0.00 0.00 35 1032.0
20260502114505 20 158 0.0 14.5 0.00 0.00 0.00 36 1033.0
20260502113005 20 135 3.2 14.5 0.00 0.00 0.00 36 1033.0
20260502111505 20 135 1.6 14.5 0.00 0.00 0.00 36 1033.0
20260502110005 20 23 0.0 14.5 0.00 0.00 0.00 36 1033.0
20260502104505 20 135 0.0 14.5 0.00 0.00 0.00 36 1033.0
20260502103005 20 158 1.6 14.5 0.00 0.00 0.00 36 1033.0
20260502101505 20 113 0.0 14.5 0.00 0.00 0.00 36 1034.0
20260502091505 19 113 1.6 14.5 0.00 0.00 0.00 36 1034.0
20260502071505 16 45 0.0 9.7 0.00 0.00 0.00 39 1034.0
20260502070005 15 68 0.0 9.7 0.00 0.00 0.00 39 1035.0
20260502064505 15 68 0.0 9.7 0.00 0.00 0.00 40 1035.0
20260502063005 13 135 0.0 9.7 0.00 0.00 0.00 40 1035.0
20260502061505 13 113 0.0 9.7 0.00 0.00 0.00 41 1035.0
20260502060005 12 135 0.0 9.7 0.00 0.00 0.00 41 1035.0
20260502054505 11 135 0.0 9.7 0.00 0.00 0.00 42 1035.0
20260502053005 10 158 0.0 9.7 0.00 0.00 0.00 41 1035.0
20260502051505 8 158 0.0 9.7 0.00 0.00 0.00 41 1035.0
20260502050005 8 158 0.0 9.7 0.00 0.00 0.00 41 1035.0
20260502044505 7 158 0.0 9.7 0.00 0.00 0.00 40 1035.0
20260502043005 6 158 0.0 9.7 0.00 0.00 0.00 40 1035.0
20260502041505 6 158 0.0 9.7 0.00 0.00 0.00 40 1035.0
20260502040005 6 158 0.0 9.7 0.00 0.00 0.00 40 1035.0
20260502034505 6 158 0.0 9.7 0.00 0.00 0.00 39 1035.0
20260502033005 6 158 0.0 9.7 0.00 0.00 0.00 39 1035.0
20260502031505 6 158 0.0 9.7 0.00 0.00 0.00 40 1035.0
20260502030005 6 158 0.0 9.7 0.00 0.00 0.00 45 1035.0
20260502024505 6 158 0.0 9.7 0.00 0.00 0.00 45 1035.0
20260502023005 6 158 0.0 9.7 0.00 0.00 0.00 45 1035.0
20260502021505 7 158 0.0 9.7 0.00 0.00 0.00 45 1035.0
20260502020005 7 158 0.0 9.7 0.00 0.00 0.00 45 1035.0
20260502014505 7 158 0.0 9.7 0.00 0.00 0.00 45 1035.0
20260502013005 8 158 0.0 9.7 0.00 0.00 0.00 45 1035.0
20260502011505 7 158 0.0 9.7 0.00 0.00 0.00 44 1036.0
20260502010005 7 158 0.0 9.7 0.00 0.00 0.00 44 1036.0
20260502004505 7 158 0.0 9.7 0.00 0.00 0.00 44 1036.0
20260502003005 7 158 0.0 9.7 0.00 0.00 0.00 43 1036.0
20260502001505 8 158 0.0 9.7 0.00 0.00 0.00 43 1036.0
20260502000005 8 158 0.0 9.7 0.00 0.00 0.00 43 1036.0
20260501234505 9 158 0.0 9.7 0.00 0.00 0.00 43 1036.0
20260501233005 9 158 0.0 9.7 0.00 0.00 0.00 43 1036.0
20260501231505 9 158 0.0 9.7 0.00 0.00 0.00 43 1036.0
20260501230005 8 158 0.0 9.7 0.00 0.00 0.00 42 1036.0
20260501224505 9 158 0.0 9.7 0.00 0.00 0.00 42 1036.0
20260501223005 9 158 0.0 9.7 0.00 0.00 0.00 42 1036.0
20260501221505 10 158 0.0 9.7 0.00 0.00 0.00 41 1036.0
20260501220005 10 158 0.0 9.7 0.00 0.00 0.00 41 1036.0
20260501204505 11 158 0.0 9.7 0.00 0.00 0.00 40 1036.0
20260501203005 12 158 0.0 9.7 0.00 0.00 0.00 39 1036.0
20260501201505 13 158 1.6 9.7 0.00 0.00 0.00 39 1036.0
20260501200005 12 158 0.0 9.7 0.00 0.00 0.00 39 1036.0
20260501194505 12 135 0.0 9.7 0.00 0.00 0.00 39 1036.0
20260501193005 12 135 0.0 9.7 0.00 0.00 0.00 38 1036.0
20260501191505 13 135 0.0 9.7 0.00 0.00 0.00 38 1036.0
20260501190005 13 135 0.0 9.7 0.00 0.00 0.00 37 1036.0
20260501184505 13 158 0.0 9.7 0.00 0.00 0.00 37 1036.0
20260501183005 13 135 0.0 9.7 0.00 0.00 0.00 36 1036.0
20260501181505 15 180 0.0 9.7 0.00 0.00 0.00 36 1036.0
20260501180005 15 180 0.0 9.7 0.00 0.00 0.00 36 1036.0
20260501174505 15 180 0.0 9.7 0.00 0.00 0.00 36 1036.0
20260501173005 16 180 1.6 9.7 0.00 0.00 0.00 36 1036.0
20260501171505 16 225 0.0 9.7 0.00 0.00 0.00 36 1036.0
20260501170005 16 225 0.0 9.7 0.00 0.00 0.00 36 1036.0
20260501164505 16 158 3.2 9.7 0.00 0.00 0.00 36 1036.0
20260501163005 17 203 3.2 8.0 0.00 0.00 0.00 36 1036.0
20260501161505 17 158 1.6 8.0 0.00 0.00 0.00 36 1036.0
20260501160005 17 135 0.0 9.7 0.00 0.00 0.00 36 1036.0
20260501154505 17 158 0.0 9.7 0.00 0.00 0.00 36 1036.0
20260501153005 17 135 0.0 9.7 0.00 0.00 0.00 36 1036.0
20260501151505 17 180 1.6 9.7 0.00 0.00 0.00 36 1036.0